#timestamp,LO_Frequency,Hit,StdDev 
1455325215.7,286047001.2,N
1455325235.5,286046996.7,N
1455325255.3,286046996.6,N
1455325275.2,286046999.3,N
1455325295.9,286047002.1,N
1455325315.7,286047001.7,N
1455325335.6,286047002.9,N
1455325355.4,286047003.7,N
1455325375.2,286047006.0,N
1455325395.0,286047006.9,N
1455325396.0,286047006.9,N
1455325415.8,286047005.4,N
1455325435.6,286047001.3,N
1455325455.4,286047001.1,N
1455325475.3,286047000.5,N
1455325495.1,286047002.5,N
1455325515.8,286047002.7,N
1455325535.7,286047002.6,N
1455325555.5,286047002.3,N
1455325575.3,286047000.5,N
1455325595.2,286047000.6,N
1455325615.9,286047001.9,N
1455325635.7,286047005.9,N
1455325655.6,286047008.9,Y
1455325675.4,286047005.2,P
1455325695.2,286047006.8,P
1455325715.1,286047005.3,N
1455325716.0,286047005.3,Y
1455325735.8,286047002.5,P
1455325755.6,286047007.5,P
1455325775.5,286047003.3,N
1455325795.3,286047005.8,Y
1455325815.1,286047002.7,P
1455325835.9,286046998.3,N
1455325855.7,286047000.1,N
1455325875.5,286047002.5,N
1455325895.4,286047004.2,N
1455325915.2,286047005.1,N
1455325935.0,286047006.3,N
1455325935.9,286047006.3,N
1455325955.8,286047004.7,N
1455325975.6,286047003.5,N
1455325995.4,286047006.9,N
1455326015.2,286047007.1,N
1455326035.1,286047007.6,Y
1455326036.0,286047007.6,P
1455326055.8,286046998.6,N
1455326075.7,286046998.4,N
1455326095.5,286046999.0,N
1455326115.3,286046998.8,N
1455326135.1,286046999.1,N
1455326155.9,286046996.9,N
1455326175.7,286046997.1,N
1455326195.5,286046999.1,N
1455326215.4,286047000.5,N
1455326235.2,286047002.8,N
1455326255.0,286046999.7,N
1455326255.9,286046999.7,N
1455326275.8,286046999.7,N
1455326295.6,286047005.5,N
1455326315.4,286047005.6,N
1455326335.3,286047001.7,N
1455326355.1,286047001.3,N
1455326356.0,286047001.3,N
1455326375.8,286047003.8,N
1455326395.7,286047005.6,N
1455326415.5,286047007.8,N
1455326435.3,286047011.9,Y
1455326455.2,286047009.3,P
1455326475.9,286047009.5,N
1455326495.7,286047007.9,N
1455326515.6,286047007.1,N
1455326535.4,286047005.7,N
1455326555.2,286047007.5,N
1455326575.1,286047009.3,Y
1455326576.0,286047009.3,P
1455326595.8,286047005.9,P
1455326615.6,286047006.0,P
1455326635.5,286047005.1,Y
1455326655.3,286046997.0,P
1455326675.1,286046997.8,N
1455326695.9,286046997.4,N
1455326715.7,286046997.7,N
1455326735.5,286046994.9,N
1455326755.3,286046995.6,N
1455326775.2,286046993.5,N
1455326795.0,286046991.0,N
1455326795.9,286046991.0,N
1455326815.7,286046991.4,N
1455326835.6,286046987.1,N
1455326855.4,286046986.7,N
1455326875.2,286046985.2,N
1455326895.1,286046984.2,N
1455326896.0,286046984.2,N
1455326915.8,286046981.0,Y
1455326935.6,286046988.5,P
1455326955.5,286046986.9,P
1455326975.3,286046989.4,P
1455326995.1,286046992.2,Y
1455327015.9,286047004.8,P
1455327035.7,286047007.3,N
1455327055.5,286047006.5,N
1455327075.4,286047008.2,N
1455327095.2,286047010.7,N
1455327115.0,286047011.1,N
1455327115.9,286047011.1,N
1455327135.8,286047019.8,N
1455327155.6,286047020.3,N
1455327175.4,286047020.1,N
1455327195.3,286047019.5,N
1455327215.1,286047022.8,N
1455327216.0,286047022.8,N
1455327235.8,286047020.9,N
1455327255.6,286047022.7,N
1455327275.5,286047028.2,Y
1455327295.3,286047012.5,P
1455327315.1,286047014.9,P
1455327335.9,286047013.1,P
1455327355.7,286047012.6,Y
1455327375.5,286046998.9,P
1455327395.4,286047002.5,N
1455327415.2,286047001.2,N
1455327435.0,286046999.0,N
1455327435.9,286046999.0,N
1455327455.8,286046997.1,N
1455327475.6,286046996.8,N
1455327495.4,286046995.8,N
1455327515.3,286046996.1,N
1455327535.1,286046994.1,N
1455327536.0,286046994.1,N
1455327555.8,286046994.8,N
1455327575.7,286046990.1,N
1455327595.5,286046992.2,N
1455327615.3,286046994.7,N
1455327635.1,286046994.1,N
1455327655.9,286046993.7,N
1455327675.7,286046994.0,N
1455327695.5,286046992.3,N
1455327715.4,286046993.9,N
1455327735.2,286046995.8,N
1455327755.0,286046993.5,N
1455327755.9,286046993.5,N
1455327775.8,286046990.6,N
1455327795.6,286046993.2,N
1455327815.4,286046989.2,N
1455327835.3,286046989.6,N
1455327855.1,286046993.1,N
1455327856.0,286046993.1,N
1455327875.8,286046990.8,N
1455327895.7,286046990.3,Y
1455327915.5,286046994.0,P
1455327935.3,286046994.8,P
1455327955.2,286046994.6,P
1455327975.9,286046990.6,Y
1455327995.7,286046999.4,P
1455328015.6,286046999.9,N
1455328035.4,286047003.2,N
1455328055.2,286047005.2,N
1455328075.1,286047006.3,N
1455328076.0,286047006.3,N
1455328095.8,286047004.6,N
1455328115.6,286047005.0,N
1455328135.4,286047005.0,N
1455328155.3,286047007.2,N
1455328175.1,286047005.0,N
1455328195.8,286047006.8,N
1455328215.7,286047010.1,N
1455328235.5,286047011.7,Y
1455328255.3,286047004.7,P
1455328275.2,286047003.4,P
1455328295.0,286047004.1,P
1455328295.9,286047004.1,Y
1455328315.7,286047001.1,P
1455328335.6,286046996.5,N
1455328355.4,286046993.3,N
1455328375.2,286046993.5,N
1455328395.1,286046991.9,N
1455328396.0,286046991.9,N
1455328415.8,286046991.9,N
1455328435.6,286046992.5,N
1455328455.5,286046996.0,N
1455328475.3,286046995.0,N
1455328495.1,286046997.2,N
1455328515.9,286046997.4,N
1455328535.7,286046999.6,N
1455328555.5,286047000.1,N
1455328575.4,286047000.7,N
1455328595.2,286046999.0,N
1455328615.0,286046997.8,N
1455328615.9,286046997.8,N
1455328635.7,286046997.8,N
1455328655.6,286046995.3,N
1455328675.4,286046997.5,N
1455328695.2,286046996.8,N
1455328715.1,286046997.4,N
1455328716.0,286046997.4,N
1455328735.8,286046999.2,N
1455328755.6,286046998.8,N
1455328775.5,286046996.7,N
1455328795.3,286046996.0,N
1455325215.6,286046999.2,N
1455325235.4,286046997.7,N
1455325255.2,286046997.1,N
1455325275.1,286047000.9,N
1455325276.0,286047000.9,N
1455325295.8,286047000.8,N
1455325315.6,286047002.6,N
1455325335.5,286047003.7,N
1455325355.3,286047005.3,N
1455325375.1,286047007.4,N
1455325395.8,286047006.2,N
1455325415.7,286047007.6,N
1455325435.5,286047007.3,N
1455325455.3,286047008.0,N
1455325475.2,286047010.5,Y
1455325495.0,286047006.2,P
1455325495.9,286047006.2,P
1455325515.7,286047008.7,P
1455325535.6,286047008.0,Y
1455325555.4,286047003.4,P
1455325575.2,286047005.1,P
1455325595.1,286047005.1,P
1455325596.0,286047005.1,Y
1455325615.8,286046999.3,P
1455325635.7,286047002.6,N
1455325655.5,286047004.4,N
1455325675.3,286047003.2,N
1455325695.1,286047001.6,N
1455325715.9,286047001.6,N
1455325735.7,286047001.9,N
1455325755.5,286046999.7,N
1455325775.4,286047002.1,N
1455325795.2,286047004.4,N
1455325815.0,286047000.2,N
1455325815.9,286047000.2,N
1455325835.8,286046999.9,N
1455325855.6,286046999.9,N
1455325875.4,286046996.6,N
1455325895.3,286046999.6,N
1455325915.1,286046996.8,N
1455325916.0,286046996.8,N
1455325935.8,286046993.3,N
1455325955.7,286046998.0,N
1455325975.5,286046999.2,N
1455325995.3,286046999.1,N
1455326015.1,286046996.2,N
1455326035.9,286046997.6,N
1455326055.7,286046994.4,N
1455326075.5,286046989.3,Y
1455326095.4,286046988.4,P
1455326115.2,286046986.9,N
1455326135.0,286046988.0,N
1455326135.9,286046988.0,N
1455326155.8,286046985.4,Y
1455326175.6,286046995.8,P
1455326195.4,286046993.9,N
1455326215.3,286046992.1,P
1455326235.1,286046990.5,Y
1455326255.8,286046999.6,P
1455326275.7,286047000.8,N
1455326295.5,286047000.5,N
1455326315.3,286046997.5,N
1455326335.2,286046999.1,N
1455326355.9,286046999.5,N
1455326375.7,286046996.0,N
1455326395.6,286046997.9,N
1455326415.4,286046999.4,N
1455326435.2,286046999.3,N
1455326455.1,286046999.6,N
1455326456.0,286046999.6,N
1455326475.8,286046997.9,N
1455326495.6,286046995.3,N
1455326515.5,286046999.2,N
1455326535.3,286046996.7,N
1455326555.1,286046996.0,N
1455326575.8,286046996.7,N
1455326595.7,286046998.5,N
1455326615.5,286046995.1,N
1455326635.3,286046999.4,N
1455326655.2,286046997.3,N
1455326675.9,286046998.7,N
1455326695.7,286046996.9,N
1455326715.6,286046998.9,N
1455326735.4,286047001.8,N
1455326755.2,286047001.0,N
1455326775.1,286046997.7,N
1455326776.0,286046997.7,N
1455326795.8,286046996.6,N
1455326815.6,286046999.3,N
1455326835.4,286046995.7,N
1455326855.3,286046997.2,N
1455326875.1,286046997.8,N
1455326895.8,286047001.2,N
1455326915.7,286047001.0,N
1455326935.5,286046998.7,N
1455326955.3,286046998.4,N
1455326975.2,286046998.5,N
1455326995.9,286047001.2,N
1455327015.7,286047001.3,N
1455327035.6,286047005.9,Y
1455327055.4,286047003.1,P
1455327075.2,286047007.4,P
1455327095.1,286047005.5,N
1455327096.0,286047005.5,N
1455327115.8,286047005.7,N
1455327135.6,286047004.1,N
1455327155.5,286047005.8,N
1455327175.3,286047003.3,N
1455327195.1,286047002.8,N
1455327215.9,286047003.1,N
1455327235.7,286047001.4,N
1455327255.5,286046998.7,N
1455327275.3,286046995.0,N
1455327295.2,286046997.3,N
1455327315.9,286046996.5,N
1455327335.7,286046998.9,N
1455327355.6,286046995.3,N
1455327375.4,286046994.4,N
1455327395.2,286046992.8,N
1455327415.1,286046993.0,N
1455327416.0,286046993.0,N
1455327435.8,286046989.0,N
1455327455.6,286046992.5,N
1455327475.5,286046993.1,N
1455327495.3,286046994.4,N
1455327515.1,286046993.8,N
1455327535.8,286046996.3,N
1455327555.7,286046994.2,N
1455327575.5,286046992.3,N
1455327595.3,286046994.3,N
1455327615.2,286046992.7,N
1455327635.0,286046989.6,N
1455327635.9,286046989.6,N
1455327655.7,286046985.4,N
1455327675.6,286046983.7,Y
1455327695.4,286046989.3,P
1455327715.2,286046991.4,N
1455327735.1,286046991.6,P
1455327736.0,286046991.6,Y
1455327755.8,286046997.1,P
1455327775.6,286046994.9,N
1455327795.5,286046999.4,N
1455327815.3,286046999.2,N
1455327835.1,286046998.0,N
1455327855.9,286046993.8,N
1455327875.7,286046993.3,N
1455327895.5,286046997.4,N
1455327915.4,286046996.9,N
1455327935.2,286046993.5,N
1455327955.0,286046996.3,N
1455327955.9,286046996.3,N
1455327975.8,286046996.2,N
1455327995.6,286046993.6,N
1455328015.4,286046990.2,Y
1455328035.3,286046996.2,P
1455328055.1,286046995.3,P
1455328056.0,286046995.3,P
1455328075.8,286046998.9,N
1455328095.7,286046999.6,N
1455328115.5,286046996.5,N
1455328135.3,286046994.9,Y
1455328155.2,286047000.8,P
1455328175.9,286046999.4,N
1455328195.7,286046994.9,P
1455328215.6,286046997.0,N
1455328235.4,286046996.8,N
1455328255.2,286046997.3,N
1455328275.0,286046996.0,N
1455328276.0,286046996.0,N
1455328295.8,286046995.4,N
1455328315.6,286046997.4,N
1455328335.4,286046996.0,N
1455328355.3,286046995.2,Y
1455328375.1,286046997.8,P
1455328395.8,286046997.3,P
1455328415.7,286047001.1,P
1455328435.5,286046999.9,N
1455328455.3,286046999.1,N
1455328475.2,286046998.0,N
1455328495.9,286046997.7,N
1455328515.7,286046999.4,N
1455328535.6,286046997.4,N
1455328555.4,286046996.2,Y
1455328575.2,286046995.7,P
1455328595.1,286046998.9,N
1455328596.0,286046998.9,N
1455328615.8,286046997.2,N
1455328635.6,286046993.8,Y
1455328655.5,286046999.3,P
1455328675.3,286046998.9,N
1455328695.1,286046997.2,P
1455328715.9,286046999.0,N
1455328735.7,286047003.6,Y
1455328755.5,286047005.0,P
1455328775.4,286047005.1,N
1455328795.2,286047008.2,N
